Regional Weather Roundup
Issued by NWS

Home | Current Version | Previous Version | Graphics & Text | Print | Product List | Glossary On
Versions: 1 2 3 4 5 6 7 8 9 10 11 12 13 14 15 16 17 18 19 20 21 22 23 24 25 26 27 28 29 30 31 32 33 34 35 36 37 38 39 40 41 42 43 44 45 46 47 48 49 50
794
ASUS43 KOAX 042302
RWRNE

WEATHER ROUNDUP FOR NEBRASKA
NATIONAL WEATHER SERVICE OMAHA NE
500 PM CST SUN DEC 04 2016

NOTES: SATELLITE DATA IS BEING USED TO AUGMENT CLOUD COVER ABOVE
       12000 FEET.
       "FAIR" INDICATES FEW OR NO CLOUDS BELOW 12,000 FEET WITH NO
       SIGNIFICANT WEATHER AND/OR OBSTRUCTIONS TO VISIBILITY.

  * THESE STATIONS DO NOT REPORT WEATHER SUCH AS RAIN...SNOW OR FOG.

NEZ001>004-019>022-054>056-050000-
NEBRASKA PANHANDLE

CITY           SKY/WX    TMP DP  RH WIND       PRES   REMARKS
SCOTTSBLUFF    CLEAR     44  17  33 W7        29.75F
ALLIANCE       CLEAR     46  18  32 W17G26    29.74F
CHADRON        CLOUDY    41  16  36 S9        29.71F
KIMBALL        CLOUDY    46  18  33 W5        29.78F
SIDNEY         CLEAR     43   8  23 S12       29.78F
$$

NEZ057>060-069>072-079>082-050000-
SOUTHWEST NEBRASKA

CITY           SKY/WX    TMP DP  RH WIND       PRES   REMARKS
NORTH PLATTE   CLEAR     46  18  32 S3        29.83F
IMPERIAL       CLEAR     48   9  20 S7        29.83F
LEXINGTON      CLEAR     44  18  35 W5        29.85F
MCCOOK         CLEAR     45  14  28 S7        29.87F
OGALLALA       CLEAR     49  10  21 CALM      29.80F
$$

NEZ005>010-023>029-035>040-094-050000-
NORTH CENTRAL NEBRASKA

CITY           SKY/WX    TMP DP  RH WIND       PRES   REMARKS
VALENTINE      CLEAR     39  12  33 SW8       29.77F WCI  33
AINSWORTH      CLEAR     41  17  38 SW6       29.78F
BROKEN BOW     CLEAR     43  21  41 SW7       29.82F
O`NEILL        CLEAR     45  24  44 CALM      29.82F
ORD            CLEAR     45  15  30 SW6       29.82F
THEDFORD       CLEAR     45  16  31 SW5       29.80F
$$

NEZ041-046>049-061>064-073>077-083>087-050000-
SOUTH CENTRAL NEBRASKA

CITY           SKY/WX    TMP DP  RH WIND       PRES   REMARKS
GRAND ISLAND   CLEAR     44  28  53 S8        29.88R
AURORA         CLEAR     42  33  70 SW8       29.88S
HASTINGS       CLEAR     45  31  58 S7        29.89S
HEBRON         CLEAR     36  32  87 S9        29.93S WCI  29
HOLDREGE       CLEAR     45  18  33 SW5       29.87F
KEARNEY *      CLEAR     46  19  34 SW6       29.87S
YORK           CLEAR     41  36  81 SW8       29.90R
$$

NEZ011>018-030>034-042>045-050000-
NORTHEAST NEBRASKA

CITY           SKY/WX    TMP DP  RH WIND       PRES   REMARKS
NORFOLK        CLEAR     42  24  49 W5        29.84S
ALBION         CLEAR     44  24  46 CALM      29.84F
BLAIR          CLEAR     36  32  87 SW8       29.89R WCI  29
FREMONT        CLEAR     36  32  87 S3        29.89S
TEKAMAH        CLEAR     38  35  89 S8        29.89R WCI  32
WAYNE          CLEAR     42  30  61 CALM      29.84S
$$

NEZ050>053-065>068-078-088>093-050000-
SOUTHEAST NEBRASKA

CITY           SKY/WX    TMP DP  RH WIND       PRES   REMARKS
LINCOLN        CLEAR     34  31  88 S5        29.92F WCI  30
OMAHA EPPLEY   CLEAR     36  30  79 S8        29.91R WCI  30
BEATRICE       CLEAR     38  34  84 SW5       29.93S WCI  35
FALLS CITY     CLEAR     41  36  82 SW8       29.96R
NEBRASKA CITY  CLEAR     37  33  85 SW10      29.93S WCI  29
PLATTSMOUTH    CLEAR     37  31  82 S8        29.91S WCI  30
$$

NEZ044-045-051>053-067-050000-
OMAHA AREA

CITY           SKY/WX    TMP DP  RH WIND       PRES   REMARKS
OMAHA EPPLEY   CLEAR     36  30  79 S8        29.91R WCI  30
BLAIR          CLEAR     36  32  87 SW8       29.89R WCI  29
FREMONT        CLEAR     36  32  87 S3        29.89S
MILLARD        CLEAR     37  32  82 CALM      29.91S
OFFUTT AFB     CLEAR     38  37  99 S5        29.91S WCI  34
PLATTSMOUTH    CLEAR     37  31  82 S8        29.91S WCI  30
WAHOO          FAIR      34  31  90 S6        29.90S WCI  29
$$




USA.gov is the U.S. government's official web portal to all federal, state and local government web resources and services.